Content
SEND FEEDBACK

Daily
Averages
Monthly
Summary
Canada

MONTREAL, QUEBEC


Home > North America > Canada > Quebec
Elevation: 118 feet     Latitude: 45 28N     Longitude: 073 45W

WEATHER
 
SELECT A DAY
Number of Records: 198,114;   Date Range: 1/1/95 - 7/27/14
 
SHARE

PRINT THIS DATA

[ ← Previous Day ]
WEATHER ALMANAC - MAY 22, 2013
[ Next Day → ]
[ °C ]   °F
Weather ElementAverageHighLow
Temperature61.6 °F73.4 °F (4:00 pm)55.4 °F (2:00 am)
Dewpoint57.1 °F62.6 °F (4:00 pm)53.6 °F (12:31 am)
Humidity85.6 %94 % (2:00 am)67 % (2:00 pm)
Barometer29.78 in29.85 in (7:43 am)29.62 in (11:36 pm)
Wind Speed7.4 mph15 mph (7:15 pm)
Weather ElementAverage
Visibility12.2 mi
Wind DirectionE (90.3 °)

Weather ElementTotal
Precipitation---
Heating Degree Days0.6 (Base 65)
Growing Degree Days14.4 (Base 50)
Averaged from 37 records on May 22, 2013
WEATHER CONDITIONS BREAKOUT
WIND DIRECTION BREAKOUT
WEATHER BY HOUR - MAY 22, 2013
[ °C ]   °F
Local TimeTemperatureDewpointHumidityBarometerVisibilityWind DirectionWind SpeedGust SpeedPrecipitationEventsConditions
12:31 AM57.2 °F53.6 °F88 %29.78 in15.0 miNE (50°)12.7 mphOvercast
1:00 AM57.2 °F53.6 °F88 %29.79 in15.0 miNE (50°)8.1 mphOvercast
2:00 AM56.0 °F54.0 °F89 %29.81 in15.0 miNE (40°)6.9 mphPartly Cloudy
2:00 AM55.4 °F53.6 °F94 %29.81 in15.0 miNE (40°)8.1 mphOvercast
2:12 AM57.2 °F53.6 °F88 %29.81 in15.0 miNorth (10°)8.1 mphLight Drizzle
3:00 AM55.4 °F53.6 °F94 %29.79 in15.0 miNNE (30°)9.2 mphOvercast
4:00 AM55.4 °F53.6 °F94 %29.80 in15.0 miNorth (350°)6.9 mphOvercast
5:00 AM55.4 °F53.6 °F94 %29.80 in15.0 miNNE (20°)6.9 mphOvercast
5:17 AM55.4 °F53.6 °F94 %29.80 in15.0 miNNE (20°)6.9 mphOvercast
6:00 AM55.4 °F53.6 °F94 %29.81 in10.0 miNNW (340°)3.5 mphOvercast
6:30 AM55.4 °F53.6 °F94 %29.83 in6.0 miNorth (350°)5.8 mphLight Drizzle
7:00 AM55.4 °F53.6 °F94 %29.83 in5.0 miNW (320°)6.9 mphLight Drizzle
7:43 AM55.4 °F53.6 °F94 %29.85 in8.0 miNorth (360°)4.6 mphOvercast
8:00 AM56.0 °F54.0 °F91 %29.84 in7.0 miNorth5.8 mphRainLight Drizzle
8:00 AM57.2 °F53.6 °F88 %29.84 in8.0 miNorth (10°)6.9 mphOvercast
9:00 AM57.2 °F55.4 °F94 %29.85 in10.0 miNE (50°)3.5 mphOvercast
9:42 AM59.0 °F55.4 °F88 %29.84 in12.0 miESE (120°)3.5 mphOvercast
10:00 AM59.0 °F55.4 °F88 %29.84 in12.0 miVariable2.3 mphOvercast
11:00 AM60.8 °F55.4 °F82 %29.85 in15.0 miCalmOvercast
12:00 PM62.6 °F55.4 °F77 %29.83 in15.0 miESE (110°)5.8 mphOvercast
1:00 PM64.4 °F57.2 °F77 %29.83 in15.0 miSSE (150°)9.2 mphOvercast
2:00 PM67.0 °F58.0 °F67 %29.80 in15.0 miESE (110°)4.6 mphPartly Cloudy
2:00 PM66.2 °F59.0 °F78 %29.80 in15.0 miEast (80°)2.3 mphMostly Cloudy
3:00 PM69.8 °F60.8 °F73 %29.77 in12.0 miNE (40°)3.5 mphMostly Cloudy
4:00 PM73.4 °F62.6 °F69 %29.76 in12.0 miESE (110°)9.2 mphMostly Cloudy
5:00 PM73.4 °F62.6 °F69 %29.75 in12.0 miESE (110°)10.4 mphOvercast
6:00 PM69.8 °F60.8 °F73 %29.73 in12.0 miNNE (30°)12.7 mphOvercast
6:09 PM69.8 °F60.8 °F73 %29.72 in12.0 miNNE (30°)13.8 mphOvercast
7:00 PM68.0 °F60.8 °F78 %29.73 in12.0 miNE (40°)12.7 mphOvercast
7:15 PM66.2 °F60.8 °F83 %29.72 in12.0 miNE (40°)15.0 mphRainLight Rain Showers
8:00 PM65.0 °F62.0 °F85 %29.73 in12.0 miNE (40°)11.5 mphRainLight Rain Showers
8:00 PM64.4 °F60.8 °F88 %29.73 in12.0 miNE (40°)11.5 mphOvercast
8:29 PM64.4 °F60.8 °F88 %29.73 in10.0 miNorth (10°)9.2 mphOvercast
9:00 PM62.6 °F59.0 °F88 %29.73 in12.0 miNNE (20°)8.1 mphMostly Cloudy
10:00 PM62.6 °F60.8 °F94 %29.70 in15.0 miNE (50°)4.6 mphScattered Clouds
11:00 PM66.2 °F62.6 °F88 %29.65 in10.0 miEast (80°)5.8 mphScattered Clouds
11:36 PM66.2 °F62.6 °F88 %29.62 in10.0 miEast (90°)6.9 mphThunderstormThunderstorm
Hourly data recorded from CYUL, located miles away from Montreal, Quebec







STORIES FROM OUR PARTNERS